User: anonymous   Login
Location: Fours
(44.3167°N, 6.7000°E)
Time: 12:05:04
(UTC+00:00)
Language:

Cosmos 1536 Rocket - Orbit

View from above orbital plane
View from above orbital plane
View from above satellite
View from above satellite

Ground track
Ground track

The orbit data is extracted from the following two-line orbital elements,

1 14700U 84013B   22026.09378306  .00000163  00000-0  16845-4 0  9994
2 14700  82.5364  23.4733 0019874 171.5259 256.3567 14.83373556 50614
Epoch (UTC): 26 January 2022 02:15:02
Eccentricity: 0.0019874
inclination: 82.5364°
perigee height: 605 km
apogee height: 632 km
right ascension of ascending node: 23.4733°
argument of perigee: 171.5259°
revolutions per day: 14.83373556
mean anomaly at epoch: 256.3567°
orbit number at epoch: 5061

The dashed part of the orbit path shows where the satellite is in the earth's shadow,  

DLR